Location: Newark
(44.2764°N, 5.2753°E)
Time: 20:35:20
(UTC+00:00)

ISS - Pass Details

Date: 23 January 2020
Orbit: 415 x 422 km, 51.6° (Epoch: 23 February)

Event Time Altitude Azimuth Distance (km) Brightness Sun altitude
Rises 18:05:41 0° 242° (WSW) 2,369 1.6 -16.1°
Reaches altitude 10° 18:07:47 10° 243° (WSW) 1,506 0.3 -16.4°
Maximum altitude 18:11:10 77° 329° (NNW) 438 -3.7 -17.0°
Enters shadow 18:12:06 44° 47° (NE) 594 -3.4 -17.2°
